NOAA 16 DEB, 41266

Orbit data source: Space-Track

NOAA 16 DEB, 41266 is space debris in SSO originally from a launch on Thu, 21 Sep 2000 UTC launched from the Air Force Western Test Range (AFWTR). Debris objects in space refer to the collection of defunct objects orbiting the Earth. Examples of debris include non-operational satellites, rocket bodies, and fragments generated from explosions, collisions, or faulty payload assembly.

Loading next visibility...
Identifier
41266, 2000-055FS
Orbit
SSO
Country
Flag of USUS
Related business
Manufacturer
Unknown
Mission
Spacecraft
Bus & Motor
Unknown
Mass
Unknown
Launch date (UTC)
2000-09-21 (25 years ago)
Launch vehicle
Unknown
Launch site
Air Force Western Test Range (AFWTR)
Object type
Payload
Rocket body
Debris
Shape & HBR
Unknown shape, 0.1 m
Radar Cross Section
Small (<0.1 m²)

Expand to show TLE details & history
Last TLE update: 20 hours ago

TLE from 20 hours ago
0 NOAA 16 DEB
1 41266U 00055FS  25294.15381898  .00005863  00000-0  24652-2 0  9997
2 41266  98.6661 357.6571 0002486  29.6174 330.5146 14.26179737506190
Epoch: 2025-10-21T03:41Z
TLE epoch observation values (Epoch: 2025-10-21T03:41:29.959Z)
Latitude
-0.00009°
Longitude
-87.56358°
Altitude
805.899 km
Speed
7.451 km/s
True Right ascension
23h 50m 37s
True Declination
0° 00' 00"
Sunlit
Object was in full shadow at epoch
Visualization orbit readout
Latitude
Unknown
Longitude
Unknown
Altitude
Unknown
Speed
Unknown
Apparent Right ascension
Unknown
Apparent Declination
Unknown
Sunlit
N/A
Visualization observer readout
Local Sidereal Time
19:01:10
Azimuth
Unknown
Elevation
Unknown
Doppler factor
Unknown
Orbital elements
Apogee altitude
803.462 km
Perigee altitude
799.892 km
Semi-major axis
7,179.814 km
Eccentricity
0.00025
Inclination
98.6661°
RAAN
357.6571°
Arg. of periapsis
29.6174°
True anomaly
330.50057°
Mean anomaly
330.5146°
Eccentric anomaly
330.50759°
Mean motion
3.56758 °/min
Orbital period
100.91 mins
BSTAR
0.0024652
Loading maneuver chart data...
Computing Atmospheric mass density...
Loading historical data...
Loading historical data...
Loading historical data...
Loading historical data...
Loading historical data...
Loading historical data...
Loading historical data...

Documentation

Showing up to 5 results
|